Home   Weather   Cottbus   Past weeks

Flag for Germany Past Weather in Cottbus, Brandenburg, Germany — Yesterday and Last 2 Weeks

Now
45 °F

Scattered showers. Scattered clouds.


Feels Like: 41 °F
Forecast: 33 / 55 °F
Wind: 7 mph from Northwest

Location: Holzdorf

Current Time: Apr 23, 2017 at 7:42:20 pm

Latest Report: Apr 23, 2017 at 6:20 pm


Visibility: N/A

Pressure: 30.09 "Hg

Humidity: 66%

Dew Point: 34 °F

Location of CottbusLocation

Past Weather in Cottbus — Graph

°F

Cottbus Temperature Yesterday

Maximum temperature yesterday: 52 °F (at 12:20 am)
Minimum temperature yesterday: 41 °F (at 9:20 pm)
Average temperature yesterday: 46 °F

High & Low Weather Summary for the Past Weeks

 TemperatureHumidityPressure
High72 °F (Apr 10, 1:20 pm)100% (Apr 9, 12:20 am)30.57 "Hg (Apr 9, 12:20 am)
Low25 °F (Apr 20, 5:20 am)37% (Apr 20, 4:20 pm)29.77 "Hg (Apr 13, 12:00 am)
Average45 °F72%30.10 "Hg
* Reported Apr 8 6:20 pm — Apr 23 6:20 pm, Cottbus, Weather by CustomWeather, © 2017

Note: Actual official high and low records may vary slightly from our data, if they occured in-between our weather recording intervals... More about our weather records

Advertising

Cottbus Weather History for the Previous 24 Hours

Scroll right to see more
 ConditionsComfort  
Time TempWeatherWind HumidityBarometerVisibility
6:20 pm
Sun, Apr 23
45 °FScattered showers. Scattered clouds.7 mph66%30.09 "HgN/A
5:20 pm48 °FScattered clouds.17 mph50%30.09 "HgN/A
4:20 pm46 °FScattered showers. Scattered clouds.13 mph57%30.09 "HgN/A
3:20 pm50 °FScattered clouds.20 mph47%30.09 "HgN/A
2:20 pm45 °FSprinkles. Broken clouds.13 mph66%30.09 "HgN/A
1:20 pm45 °FSprinkles. Partly sunny.17 mph61%30.09 "HgN/A
12:20 pm45 °FSprinkles. Partly sunny.20 mph66%30.12 "HgN/A
11:20 am45 °FScattered showers. Scattered clouds.13 mph81%30.12 "HgN/A
11:01 am43 °FSprinkles. Partly sunny.14 mph76%30.12 "Hg6 mi
10:20 am45 °FPartly sunny.14 mph66%30.12 "HgN/A
9:20 am41 °FPartly sunny.9 mph81%30.12 "HgN/A
8:40 am41 °FBroken clouds.14 mph81%30.12 "HgN/A
8:20 am41 °FPartly sunny.12 mph87%30.12 "HgN/A
7:30 am39 °FLight rain. Partly sunny.13 mph93%30.09 "Hg6 mi
6:20 am41 °FLight rain. Partly sunny.10 mph81%30.09 "HgN/A
5:20 am41 °FLight rain. Passing clouds.10 mph81%30.07 "HgN/A
4:20 am41 °FPassing clouds.12 mph76%30.07 "HgN/A
3:20 am39 °FPassing clouds.7 mph81%30.07 "HgN/A
2:20 am39 °FPassing clouds.8 mph75%30.07 "HgN/A
1:20 am39 °FPassing clouds.8 mph75%30.07 "HgN/A
12:20 am41 °FPassing clouds.9 mph76%30.07 "HgN/A
11:20 pm
Sat, Apr 22
41 °FPassing clouds.12 mph76%30.07 "HgN/A
10:20 pm41 °FPassing clouds.8 mph76%30.07 "HgN/A
9:20 pm41 °FPartly cloudy.8 mph81%30.07 "HgN/A
8:20 pm46 °FSprinkles. Partly cloudy.14 mph57%30.04 "HgN/A
7:20 pm48 °FScattered showers. Broken clouds.10 mph46%30.04 "HgN/A
Weather by CustomWeather, © 2017

See weather overviewHow to use our weather pages